Погода в Тенгинке

Россия / Краснодарский край     44°19′25″N   38°46′54″E
темп.,
°C
ветер,
м/с
пор.,
м/с
влажн.,
%
обл.,
%
осадки,
мм/ч
давл.,
гПа
погр.,
м
21 апреля, ср
ср2100:00+11юз7108894 0.1 1016503
03:00+10ююз689047 0.1 1017483
06:00+10юз238772 0.1 1018373
09:00+10з2282100 0.2 1019329
12:00+11юз227886 0.0 1020220
15:00+11з33815 0.0 1020269
18:00+11зсз33805 0.0 1020190
21:00+10ссз2384100 0.0 102165
22 апреля, чт
чт2200:00+9ссв2278100 0.0 102174
03:00+10ссз3475100 0.0 1021105
06:00+9с458372 0.0 1021114
09:00+13с457292 0.0 1021143
12:00+14зсз3469100 0.0 1021279
15:00+12зсз7977100 0.0 1022229
18:00+13зсз67815 0.2 102183
21:00+11с33894 0.6 102341
23 апреля, пт
пт2300:00+10ссв45860 0.0 102367
03:00+10вюв34870 0.0 1024115
06:00+10в23880 0.0 1024101
09:00+11юв48835 0.0 1024429
12:00+11ююв68886 0.0 1024358
15:00+11юв338487 0.0 1022196
18:00+11всв1180100 0.0 102060
21:00+12ссз2278100 0.0 102013
24 апреля, сб
сб2400:00+12сз2275100 0.0 101916
03:00+12всв3371100 0.0 101926
06:00+11вюв11735 0.0 101911
09:00+13зюз33685 0.0 1020125
12:00+12ююз46794 0.0 1021326
15:00+12юз23835 0.0 1021258
18:00+11ююв118375 0.0 1021120
21:00+11ссв2282100 0.0 102132
25 апреля, вс
вс2500:00+11с4472100 0.0 102061
03:00+11ссв4571100 0.0 101996
06:00+10ссв578499 0.0 1018170
09:00+11ссв5782100 0.0 1018257
12:00+11с4583100 0.5 1018227
15:00+10ссв5687100 1.8 1017303
18:00+9ссв6785100 0.4 1017294
21:00+9ссв5686100 0.4 1017279